Flag for U.S.A. Weather past 2 weeks in Lynchburg, Virginia, U.S.A.

Now
67 °F

Fog.


Feels Like: 67 °F
Forecast: 62 / 75 °F
Wind: No wind

Location: Lynchburg Regional Airport

Current Time: Jul 3, 2015 at 8:23:28 AM

Latest Report: Jul 3, 2015 at 7:54 AM


Visibility: 6 mi

Pressure: 29.98 "Hg

Humidity: 93%

Dew point: 65 °F

Location of LynchburgLocation

Historic Weather in Lynchburg — Graph

°F

Lynchburg temperature yesterday

Maximum temperature yesterday: 78 °F (at 1:54 PM)
Minimum temperature yesterday: 64 °F (at 11:54 PM)
Average temperature yesterday: 72 °F

Past Weeks' High & Low Weather Summary

 TemperatureHumidityPressure
High90 °F (Jun 21, 3:54 PM)100% (Jun 18, 6:58 AM)30.11 "Hg (Jun 18, 6:58 AM)
Low54 °F (Jun 29, 5:54 AM)37% (Jun 24, 5:54 PM)29.71 "Hg (Jun 27, 6:54 PM)
Average75 °F77%29.95 "Hg
* Reported Jun 18 6:58 AM — Jul 3 6:54 AM, Lynchburg, Weather by CustomWeather, © 2015

Note: Actual official high and low records may vary slightly from our data, if they occured in-between our weather recording intervals... More about our weather records

Advertising

Lynchburg weather history for previous 24 hours

 ConditionsComfort  
Time TempWeatherWind HumidityBarometerVisibility
6:54 AM
Fri, Jul 3
65 °FFog.No wind100%29.96 "Hg4 mi
5:54 AM65 °FFog.No wind100%29.95 "Hg5 mi
4:54 AM65 °FFog.No wind100%29.94 "Hg5 mi
3:54 AM65 °FFog.No wind97%29.93 "Hg5 mi
2:54 AM64 °FFog.No wind100%29.93 "Hg5 mi
1:54 AM62 °FFog.No wind100%29.94 "Hg4 mi
12:54 AM63 °FFog.No wind100%29.95 "Hg5 mi
11:54 PM
Thu, Jul 2
64 °FFog.No wind100%29.95 "Hg4 mi
10:54 PM66 °FClear.No wind93%29.94 "Hg8 mi
9:54 PM69 °FPassing clouds.6 mph90%29.92 "Hg9 mi
8:54 PM71 °FOvercast.No wind84%29.91 "Hg9 mi
7:54 PM72 °FPartly sunny.3 mph81%29.91 "Hg10 mi
6:54 PM73 °FPassing clouds.5 mph76%29.89 "Hg10 mi
5:54 PM74 °FPartly sunny.5 mph74%29.88 "Hg10 mi
4:54 PM73 °FPartly sunny.6 mph76%29.90 "Hg10 mi
3:54 PM74 °FPartly sunny.6 mph74%29.91 "Hg10 mi
2:54 PM76 °FPartly sunny.5 mph67%29.90 "Hg10 mi
1:54 PM78 °FOvercast.No wind62%29.90 "Hg10 mi
12:54 PM76 °FMostly cloudy.7 mph64%29.90 "Hg10 mi
11:54 AM77 °FPartly sunny.3 mph60%29.90 "Hg10 mi
10:54 AM77 °FMostly cloudy.3 mph60%29.90 "Hg10 mi
9:54 AM76 °FSunny.6 mph64%29.90 "Hg10 mi
8:54 AM74 °FOvercast.3 mph76%29.91 "Hg7 mi
Weather by CustomWeather, © 2015

See weather overviewHow to use our weather pages